[[{"header":{"parameterUnit":"m.s-1","parameterCategory":1,"la1":30.2991,"la2":30.254,"lo1":-89.0895,"lo2":-89.0444,"dy":0.0017,"dx":0.0017,"nx":28,"ny":28,"refTime":"2025-08-30T09:00:00:Z","depth":0,"parameterNumber":2,"parameterNumberName":"U-component_of_WINDS"},"data":[0,0,0,0,0,0,0,0,0,0,0,0,0,0,0,0,0,0,0,0,0,0,0,0,0,0,0,0,0,0,0,0,0,0,0,0,0,0,0,0,0,0,0,0,0,0,0,0,0,0,0,0,0,0,0,0,0,0,1.2086,1.2086,0,1.2116,1.2116,1.2116,1.2109,1.2108,1.2108,1.2107,1.2137,1.2138,1.2139,0,0,0,0,0,0,0,0,0,0,0,0,0,1.2021,1.2022,1.2086,1.2086,1.2086,1.2116,1.2116,1.2117,1.2109,1.2108,1.2108,1.2107,1.2136,1.2138,1.2139,0,0,0,0,0,0,0,0,0,0,0,0,0,1.205,1.2023,1.2085,1.2086,1.2087,1.2116,1.2116,1.2117,1.2109,1.2108,1.2108,1.2107,1.2136,1.2138,1.214,1.2169,0,0,1.2146,1.2147,0,0,0,0,0,0,0,0,1.2048,1.2052,1.2086,1.2086,1.2087,1.2108,1.2104,1.2134,1.211,1.2101,1.2107,1.2106,1.2128,1.213,1.2138,1.2171,1.2172,1.2146,1.2147,1.2148,1.2149,0,0,0,0,0,0,0,1.2046,1.2051,1.2097,1.2086,1.2087,1.2085,1.2088,1.211,1.2119,1.2101,1.2101,1.2105,1.2128,1.2136,1.2138,1.2172,1.2146,1.2148,1.2149,1.215,1.2233,1.2234,0,0,0,0,0,0,1.2044,1.2049,1.2096,1.2098,1.2065,1.2087,1.209,1.2102,1.2118,1.212,1.2105,1.2104,1.2133,1.2136,1.2139,1.2177,1.2148,1.215,1.2151,1.2232,1.2234,1.2235,0,0,0,0,0,0,1.2043,1.2048,1.2095,1.2074,1.208,1.2089,1.2102,1.2103,1.2111,1.2121,1.2123,1.2112,1.2132,1.2137,1.2163,1.2178,1.2151,1.2152,1.2231,1.2233,1.2234,1.2251,0,0,0,0,0,0,1.2041,1.2048,1.2059,1.2074,1.2081,1.2118,1.2103,1.2104,1.2115,1.2113,1.2128,1.213,1.2132,1.216,1.2165,1.218,1.2154,1.223,1.2232,1.2234,1.2249,1.2253,1.2256,0,0,0,0,0,1.2039,1.2062,1.206,1.2066,1.2095,1.2119,1.2123,1.2125,1.2116,1.2128,1.2135,1.2129,1.2175,1.2162,1.2168,1.2184,1.2229,1.2231,1.2234,1.2248,1.2252,1.2256,0,0,0,0,0,0,1.2047,1.2064,1.2062,1.2091,1.2104,1.2118,1.2132,1.213,1.2145,1.2143,1.2145,1.2149,1.2176,1.2182,1.2168,1.2215,1.2201,1.2204,1.221,1.2214,1.2217,1.2216,1.2156,0,0,0,0,0,1.2053,1.2071,1.2084,1.2108,1.2115,1.2123,1.2133,1.2134,1.2147,1.2153,1.2161,1.2174,1.2192,1.2203,1.2219,1.225,1.2254,1.2264,1.2267,1.227,1.2274,1.2292,1.2297,1.2242,1.2242,1.2242,0,0,1.2064,1.2075,1.2086,1.2111,1.2121,1.214,1.2127,1.2147,1.2162,1.2155,1.2181,1.2188,1.2203,1.2231,1.2245,1.2238,1.229,1.2273,1.2276,1.2277,1.2295,1.23,1.2305,1.2244,1.2244,1.2243,0,0,1.2095,1.2104,1.2127,1.2138,1.2154,1.2159,1.2164,1.2179,1.2184,1.221,1.2206,1.2223,1.2252,1.2264,1.2273,1.231,1.2306,1.2315,1.2334,1.2352,1.2356,1.236,1.2375,1.238,1.2318,1.2318,1.2318,0,1.2106,1.2135,1.2138,1.2159,1.2171,1.2167,1.219,1.22,1.222,1.2228,1.2221,1.2259,1.2269,1.2301,1.231,1.2318,1.2325,1.2314,1.2355,1.2359,1.2363,1.2377,1.2382,1.2319,1.2319,1.2319,1.2319,0,1.2149,1.217,1.2185,1.2207,1.222,1.2241,1.2248,1.2261,1.2261,1.2267,1.2295,1.2306,1.2326,1.2333,1.2333,1.2366,1.2362,1.2355,1.2341,1.2369,1.2383,1.2388,1.2321,1.232,1.232,1.232,0,0,1.2186,1.221,1.2216,1.2226,1.2244,1.226,1.2282,1.2302,1.2314,1.2328,1.2347,1.2374,1.2368,1.2379,1.238,1.2396,1.2426,1.2387,1.2387,1.2395,1.2465,1.2472,1.2478,1.2424,1.2425,1.2425,1.2465,0,1.2219,1.2258,1.2263,1.2298,1.2318,1.2315,1.2335,1.2348,1.2355,1.2373,1.2379,1.2399,1.2389,1.2396,1.2411,1.2419,1.244,1.2416,1.2442,1.2443,1.244,1.2484,1.249,1.2527,1.247,1.2471,1.2471,0,1.2262,1.228,1.2318,1.2335,1.2343,1.2361,1.2381,1.2397,1.2413,1.2417,1.243,1.243,1.2453,1.2438,1.2471,1.2455,1.2466,1.2472,1.2473,1.2476,1.246,1.249,1.2538,1.2545,1.2479,1.2478,1.2478,0,1.2287,1.2319,1.2347,1.2356,1.2376,1.2389,1.2398,1.2413,1.2425,1.2443,1.2451,1.247,1.2481,1.2497,1.2502,1.249,1.2536,1.252,1.254,1.254,1.255,1.255,1.2603,1.2555,1.2555,1.2555,1.2555,0,1.2324,1.2347,1.2359,1.2375,1.2402,1.2407,1.2434,1.2442,1.2456,1.2475,1.2473,1.2491,1.2496,1.2515,1.252,1.2548,1.2552,1.2556,1.2557,1.2557,1.2557,1.2565,1.2563,1.2557,1.2556,1.2556,1.2556,0,1.2356,1.2364,1.2394,1.2412,1.2417,1.2436,1.2451,1.2468,1.2475,1.2499,1.2505,1.2516,1.2538,1.2545,1.2571,1.2574,1.2608,1.2606,1.2603,1.2603,1.2623,1.2622,1.2684,1.2693,1.2639,1.2639,1.264,0,1.2379,1.2398,1.2418,1.2431,1.2441,1.2462,1.2475,1.2481,1.2495,1.2516,1.253,1.2553,1.2571,1.2607,1.2617,1.2638,1.2638,1.2658,1.2641,1.2641,1.264,1.2639,1.2642,1.2661,1.2662,1.2662,1.2663,0,1.2421,1.2425,1.2444,1.2466,1.2482,1.2499,1.2515,1.2526,1.2534,1.255,1.2574,1.2588,1.2617,1.2639,1.2661,1.267,1.2669,1.2668,1.2674,1.2675,1.2673,1.2676,1.2613,1.2667,1.2666,1.2666,1.2666,1.2666,1.2451,1.2468,1.2485,1.2508,1.2521,1.2537,1.2554,1.2564,1.2584,1.2608,1.261,1.2636,1.2653,1.2682,1.2693,1.2713,1.2707,1.2716,1.2718,1.272,1.2723,1.2669,1.2717,1.2717,1.2717,1.2717,1.2717,0,1.2494,1.2505,1.2526,1.255,1.2568,1.2565,1.2583,1.2599,1.2622,1.2638,1.2656,1.2685,1.2707,1.272,1.2743,1.2757,1.2757,1.2763,1.2763,1.2765,1.2726,1.2719,1.2763,1.2763,1.2763,1.2763,1.2763,1.2763,1.2518,1.2548,1.2554,1.259,1.2602,1.2628,1.2639,1.2654,1.2667,1.2699,1.2718,1.2726,1.2742,1.2766,1.2787,1.279,1.2799,1.2806,1.2809,1.2772,1.2768,1.2763,1.2757,1.2808,1.2808,1.2847,1.2847,1.2848]},{"header":{"parameterUnit":"m.s-1","parameterCategory":1,"la1":30.2991,"la2":30.254,"lo1":-89.0895,"lo2":-89.0444,"dy":0.0017,"dx":0.0017,"nx":28,"ny":28,"refTime":"2025-08-30T09:00:00:Z","depth":0,"parameterNumber":3,"parameterNumberName":"V-component_of_WINDS"},"data":[0,0,0,0,0,0,0,0,0,0,0,0,0,0,0,0,0,0,0,0,0,0,0,0,0,0,0,0,0,0,0,0,0,0,0,0,0,0,0,0,0,0,0,0,0,0,0,0,0,0,0,0,0,0,0,0,0,0,-3.8487,-3.8487,0,-3.8518,-3.8519,-3.8519,-3.8487,-3.8486,-3.8485,-3.8484,-3.8512,-3.8513,-3.8515,0,0,0,0,0,0,0,0,0,0,0,0,0,-3.8397,-3.8399,-3.8487,-3.8487,-3.8488,-3.8518,-3.8519,-3.8519,-3.8488,-3.8486,-3.8485,-3.8483,-3.8511,-3.8513,-3.8515,0,0,0,0,0,0,0,0,0,0,0,0,0,-3.8433,-3.84,-3.8487,-3.8476,-3.8475,-3.8518,-3.8519,-3.8519,-3.8488,-3.8486,-3.8484,-3.8482,-3.851,-3.8513,-3.8516,-3.857,0,0,-3.8524,-3.8526,0,0,0,0,0,0,0,0,-3.8431,-3.8436,-3.8477,-3.8477,-3.8476,-3.8497,-3.8497,-3.8536,-3.8488,-3.8483,-3.8484,-3.8482,-3.8508,-3.8511,-3.8521,-3.8571,-3.8572,-3.8525,-3.8526,-3.8527,-3.8528,0,0,0,0,0,0,0,-3.8428,-3.8435,-3.8499,-3.8478,-3.8477,-3.8468,-3.8471,-3.8504,-3.8505,-3.8483,-3.8481,-3.8485,-3.8507,-3.8518,-3.8521,-3.8573,-3.8524,-3.8527,-3.8529,-3.853,-3.8671,-3.8673,0,0,0,0,0,0,-3.8428,-3.8433,-3.8498,-3.85,-3.8449,-3.8471,-3.8475,-3.8492,-3.8505,-3.8505,-3.8487,-3.8484,-3.8514,-3.8518,-3.8522,-3.8587,-3.8527,-3.853,-3.8532,-3.8669,-3.8671,-3.8673,0,0,0,0,0,0,-3.8426,-3.8434,-3.8497,-3.8466,-3.8473,-3.8475,-3.8495,-3.8494,-3.8504,-3.8508,-3.8507,-3.8498,-3.8513,-3.8518,-3.8559,-3.8587,-3.8531,-3.8534,-3.8666,-3.8669,-3.8672,-3.8717,0,0,0,0,0,0,-3.8423,-3.8433,-3.8455,-3.8467,-3.8475,-3.8534,-3.8496,-3.8496,-3.851,-3.8506,-3.8518,-3.8518,-3.8512,-3.8555,-3.8562,-3.859,-3.8536,-3.8664,-3.8668,-3.8671,-3.8713,-3.8721,-3.8729,0,0,0,0,0,-3.842,-3.8465,-3.8456,-3.8464,-3.8502,-3.8536,-3.8541,-3.8534,-3.8512,-3.8533,-3.8536,-3.8518,-3.8583,-3.8559,-3.8567,-3.8597,-3.8662,-3.8666,-3.8671,-3.871,-3.872,-3.8728,0,0,0,0,0,0,-3.8454,-3.8466,-3.8456,-3.8506,-3.8521,-3.8531,-3.8557,-3.8545,-3.8564,-3.856,-3.8549,-3.8552,-3.8595,-3.86,-3.8573,-3.865,-3.8619,-3.8625,-3.8646,-3.8655,-3.8663,-3.8661,-3.8538,0,0,0,0,0,-3.8467,-3.8495,-3.8504,-3.8547,-3.8555,-3.8555,-3.857,-3.8563,-3.8577,-3.8583,-3.8588,-3.8601,-3.8625,-3.864,-3.8662,-3.8714,-3.8716,-3.8738,-3.8746,-3.8752,-3.8758,-3.8786,-3.8796,-3.8688,-3.8688,-3.8688,0,0,-3.8495,-3.8505,-3.8523,-3.8554,-3.8565,-3.8593,-3.856,-3.8591,-3.8612,-3.8587,-3.8626,-3.8631,-3.8645,-3.8692,-3.8713,-3.8697,-3.8788,-3.8758,-3.8763,-3.8765,-3.8792,-3.8802,-3.8811,-3.8692,-3.8691,-3.869,0,0,-3.856,-3.857,-3.8608,-3.862,-3.8637,-3.8637,-3.8646,-3.8659,-3.8661,-3.8701,-3.8683,-3.8707,-3.8748,-3.8759,-3.877,-3.8842,-3.8826,-3.8849,-3.8889,-3.8917,-3.8926,-3.8933,-3.8959,-3.8968,-3.8855,-3.8855,-3.8855,0,-3.8591,-3.8635,-3.8628,-3.8662,-3.8676,-3.8657,-3.8695,-3.8706,-3.8729,-3.8739,-3.8721,-3.8773,-3.8781,-3.8831,-3.8849,-3.8858,-3.8868,-3.8847,-3.8925,-3.8933,-3.8939,-3.8964,-3.8974,-3.8857,-3.8857,-3.8857,-3.8857,0,-3.8673,-3.8703,-3.8732,-3.8757,-3.8774,-3.8809,-3.8808,-3.8826,-3.8819,-3.8821,-3.8862,-3.8871,-3.8895,-3.8907,-3.8899,-3.8956,-3.8946,-3.8927,-3.8895,-3.8953,-3.8976,-3.8985,-3.8861,-3.886,-3.8859,-3.8859,0,0,-3.8758,-3.8781,-3.8792,-3.8803,-3.8822,-3.8845,-3.8879,-3.8905,-3.8921,-3.8937,-3.8966,-3.9002,-3.8985,-3.8998,-3.8991,-3.9016,-3.9073,-3.8994,-3.8994,-3.9009,-3.9137,-3.9151,-3.9162,-3.9063,-3.9065,-3.9066,-3.9136,0,-3.8824,-3.8886,-3.8882,-3.894,-3.8968,-3.8951,-3.8982,-3.8996,-3.8999,-3.9022,-3.9025,-3.9051,-3.9027,-3.9034,-3.9058,-3.9061,-3.9099,-3.9056,-3.9089,-3.909,-3.9086,-3.9174,-3.9189,-3.9254,-3.9145,-3.9146,-3.9147,0,-3.8908,-3.8931,-3.8992,-3.9008,-3.902,-3.9047,-3.9071,-3.9094,-3.911,-3.911,-3.9126,-3.9115,-3.915,-3.9118,-3.9165,-3.9136,-3.9149,-3.9153,-3.9155,-3.9158,-3.9122,-3.9179,-3.9275,-3.9285,-3.9161,-3.916,-3.9159,0,-3.8965,-3.901,-3.9053,-3.9064,-3.9083,-3.9103,-3.9111,-3.9126,-3.9142,-3.9162,-3.9172,-3.9196,-3.9209,-3.9227,-3.9223,-3.92,-3.9271,-3.9239,-3.9272,-3.9273,-3.9288,-3.9287,-3.9387,-3.9296,-3.9296,-3.9296,-3.9296,0,-3.9039,-3.9077,-3.9079,-3.9106,-3.9148,-3.9144,-3.9185,-3.9191,-3.9205,-3.9231,-3.9217,-3.9242,-3.9236,-3.9261,-3.9258,-3.9298,-3.9304,-3.9304,-3.9303,-3.9306,-3.9306,-3.9314,-3.9309,-3.9299,-3.9298,-3.9298,-3.9297,0,-3.9109,-3.9112,-3.9158,-3.9174,-3.9178,-3.9209,-3.9222,-3.9246,-3.9249,-3.9283,-3.9291,-3.9294,-3.9323,-3.9321,-3.9353,-3.9351,-3.94,-3.9394,-3.9396,-3.9394,-3.9428,-3.9425,-3.9537,-3.9552,-3.9452,-3.9453,-3.9453,0,-3.9156,-3.9185,-3.9205,-3.9223,-3.9234,-3.9263,-3.928,-3.9277,-3.9295,-3.9316,-3.9338,-3.9366,-3.9388,-3.9434,-3.9439,-3.9463,-3.9457,-3.9495,-3.946,-3.9463,-3.9458,-3.9456,-3.946,-3.9501,-3.9502,-3.9503,-3.9504,0,-3.9239,-3.924,-3.9266,-3.9293,-3.9314,-3.9335,-3.9354,-3.9369,-3.9368,-3.9389,-3.9419,-3.9437,-3.947,-3.9498,-3.9522,-3.9529,-3.9517,-3.9515,-3.9524,-3.9527,-3.9527,-3.9528,-3.9414,-3.9512,-3.9511,-3.9511,-3.951,-3.951,-3.9299,-3.9325,-3.9344,-3.9374,-3.9388,-3.9407,-3.9431,-3.9438,-3.9464,-3.9492,-3.9489,-3.9523,-3.9538,-3.9569,-3.958,-3.9605,-3.9592,-3.9605,-3.9608,-3.9611,-3.9616,-3.9524,-3.961,-3.9609,-3.9609,-3.9609,-3.9609,0,-3.9382,-3.9394,-3.9421,-3.945,-3.9473,-3.9462,-3.9482,-3.9502,-3.9533,-3.955,-3.9573,-3.9608,-3.9635,-3.9643,-3.9669,-3.9688,-3.9683,-3.9695,-3.9694,-3.9696,-3.9626,-3.9616,-3.9699,-3.9699,-3.9699,-3.9699,-3.9699,-3.9699,-3.9427,-3.9471,-3.9475,-3.9526,-3.9537,-3.9571,-3.9584,-3.9601,-3.9615,-3.9656,-3.9679,-3.9685,-3.9698,-3.9725,-3.975,-3.9751,-3.9762,-3.9776,-3.9775,-3.971,-3.9701,-3.9692,-3.9682,-3.9778,-3.9779,-3.9843,-3.9844,-3.9844]}]]